Wind_Speed
12 13 13 14 15 16 16 16 16 16 16 17 18 19 19 20 21 22 22 22 22 21 21 20 19 19 19 19 19 18 18 18 18 18 17 17 16 16 16 16 15 16 15 15 15 15 14 14 14 14 14 14 14 14 14 14 15 15 15 15 15 15 16 15 15 14 13 14 14 14 13 12 12 10 10 12 13 13 13 13 14 15 14 16 18
14 13 14 15 16 16 17 18 18 18 18 18 18 19 19 20 20 21 22 22 22 22 21 21 20 20 20 20 20 19 19 18 18 18 18 17 16 16 17 17 16 16 16 15 15 15 15 14 14 14 14 15 14 14 14 15 15 15 15 15 14 15 15 14 13 13 13 14 14 13 13 11 10 10 10 11 12 12 12 13 14 14 14 17 18
18 16 15 15 16 18 19 19 20 20 20 20 19 19 20 20 21 21 21 22 22 22 22 21 21 21 21 21 20 20 19 19 19 19 18 17 17 17 18 17 17 16 16 16 16 16 15 15 14 14 15 15 14 14 14 15 15 15 15 15 14 15 15 14 13 13 13 14 14 13 13 11 10 10 10 11 12 12 12 13 14 14 16 18 17
21 19 17 16 17 19 21 21 21 21 22 22 21 20 20 20 21 22 22 23 23 22 22 22 22 21 21 22 21 20 20 19 19 19 19 18 18 18 18 18 18 17 17 17 17 17 16 16 15 15 16 15 15 14 15 15 15 15 15 15 15 15 16 15 13 13 13 14 13 13 13 12 11 11 11 12 13 13 13 14 14 15 16 17 17
23 21 20 19 19 20 21 22 23 23 23 23 23 22 21 21 22 22 23 23 23 24 24 23 23 22 22 22 22 21 21 20 20 20 19 19 19 19 20 19 19 18 18 18 18 18 17 16 16 16 16 16 15 15 15 15 15 15 15 16 16 15 15 15 14 13 13 13 13 13 12 12 12 11 12 13 14 15 15 15 15 16 17 17 18
25 24 23 22 22 22 21 23 23 24 24 24 24 24 23 23 23 23 23 24 24 24 24 24 24 23 23 23 23 23 22 21 21 20 20 20 20 20 20 20 20 19 18 18 18 18 18 17 16 16 16 16 16 16 16 16 15 15 15 16 16 15 15 14 14 13 13 12 12 12 13 13 12 12 13 14 15 16 16 16 17 17 18 18 19
27 27 26 25 25 24 22 22 23 24 25 25 25 25 25 25 24 23 24 24 25 25 25 25 25 24 24 24 24 24 24 23 22 21 21 21 21 20 20 20 20 19 18 18 18 18 18 17 17 17 17 17 16 16 16 16 16 16 16 16 16 15 15 15 15 14 13 13 13 13 13 13 13 13 14 15 15 15 15 15 17 19 20 20 20
29 28 27 27 27 25 24 24 24 25 27 27 27 27 27 27 26 26 25 25 25 26 26 26 26 25 25 25 25 25 25 24 24 23 22 22 21 21 20 20 20 19 19 18 18 18 18 18 17 18 18 18 17 17 17 18 17 17 17 17 16 16 16 16 16 15 15 15 16 16 16 14 14 14 15 15 15 15 15 15 17 19 20 21 20
30 29 28 28 28 26 25 27 27 27 28 28 29 29 30 30 28 27 27 27 26 27 27 27 27 26 26 26 26 26 26 25 25 24 23 23 23 22 21 21 21 20 19 19 19 19 19 19 19 19 19 19 18 18 18 19 19 18 19 19 18 18 18 17 16 17 17 17 17 18 19 19 17 15 15 15 15 15 15 16 18 19 19 20 21
27 28 29 29 29 27 28 29 28 28 29 29 30 31 33 33 30 28 29 29 29 28 28 28 27 27 27 27 27 26 27 27 26 25 24 24 24 24 23 23 22 22 21 20 20 20 20 20 20 20 20 20 19 19 19 19 20 19 19 20 20 20 21 19 16 18 19 18 18 20 21 23 21 14 11 15 16 16 17 17 18 20 19 20 21
24 27 29 30 30 30 30 30 30 31 31 31 31 32 33 33 31 30 31 30 30 30 30 29 28 28 27 27 27 27 27 28 27 25 25 26 26 25 25 25 24 24 23 23 22 22 22 21 21 21 21 21 20 20 20 19 20 19 19 21 21 22 23 22 19 20 21 20 21 22 21 23 22 15 10 15 17 16 18 19 20 21 21 20 21
23 27 30 32 33 34 33 32 32 33 32 32 32 32 31 31 31 31 31 31 32 31 31 31 30 29 28 28 27 27 28 29 28 26 27 27 27 27 27 26 26 25 25 25 24 23 23 23 23 23 23 22 22 21 20 20 20 21 21 22 23 23 24 23 22 23 24 23 23 23 21 23 24 17 11 14 18 17 18 20 21 21 22 21 21
21 25 28 32 35 35 35 34 34 33 33 34 34 33 32 32 32 32 32 33 34 32 31 31 31 31 30 29 28 28 29 30 30 28 29 29 28 29 29 28 27 27 27 27 27 25 25 25 24 24 24 24 23 22 21 22 22 23 23 23 24 24 25 25 25 25 26 26 26 25 23 25 26 19 12 15 18 18 19 20 21 22 23 23 22
17 20 24 28 32 34 35 35 34 32 32 33 34 35 35 34 35 35 35 34 35 34 33 33 33 33 32 32 31 30 30 32 32 30 30 30 30 30 30 30 29 29 28 29 29 28 27 26 26 26 24 24 24 22 21 23 24 24 25 25 25 25 26 27 28 27 27 28 29 26 24 27 25 18 15 17 19 19 20 21 22 23 24 24 22
18 20 21 23 24 27 29 31 32 33 33 33 33 35 36 37 37 37 37 36 36 35 34 33 34 34 33 34 33 33 32 34 34 32 30 30 30 30 31 31 32 33 32 30 28 27 28 28 28 29 27 24 23 22 22 24 25 25 26 26 26 26 26 27 28 28 28 30 31 29 27 27 23 19 19 20 20 21 21 22 22 23 22 21 21
25 24 23 23 23 23 24 28 31 33 34 36 35 35 37 41 40 38 37 37 37 38 35 34 34 34 35 36 35 34 34 35 35 34 32 32 32 32 33 34 34 35 35 33 29 27 28 30 31 32 28 23 22 23 23 25 26 27 27 27 27 27 27 26 27 28 29 30 31 30 28 26 23 22 23 22 22 23 23 23 23 21 19 19 20
23 22 22 22 20 19 19 23 28 33 35 36 36 36 38 41 41 39 38 37 38 39 37 35 35 35 36 37 36 36 36 36 34 33 33 34 34 34 33 34 36 36 36 37 34 30 30 32 33 31 26 23 23 24 24 26 28 29 29 29 28 28 28 27 28 28 28 29 30 29 28 27 26 26 26 24 24 24 23 24 23 20 19 20 20
19 19 18 18 16 14 14 15 19 22 27 30 32 35 39 41 41 40 39 38 38 38 37 37 36 35 35 36 36 35 35 35 35 34 33 34 36 36 35 35 36 36 35 38 39 34 32 32 31 28 25 25 27 27 27 28 30 30 31 31 31 30 29 28 29 30 29 28 29 30 30 30 29 29 28 26 25 25 24 25 23 21 21 22 21
16 16 16 14 12 11 10 9 10 12 14 16 20 25 32 39 41 38 36 37 37 37 38 38 35 33 32 34 34 34 33 35 35 35 34 34 35 37 37 36 36 35 34 35 38 37 34 31 29 27 27 29 30 30 30 31 32 32 33 33 33 32 31 31 32 32 30 28 28 31 32 32 33 32 29 28 27 26 25 25 24 23 24 25 24
12 12 12 10 8 7 7 7 6 7 9 11 13 17 17 23 32 33 33 33 34 35 36 36 34 32 32 32 32 33 33 34 35 35 35 35 35 37 38 37 37 35 33 32 34 37 37 34 31 30 30 32 33 34 35 35 35 35 36 37 37 35 34 35 35 33 31 29 30 32 32 33 35 35 31 29 27 27 26 26 26 26 26 27 27
10 10 9 8 6 6 6 6 6 6 8 10 13 16 14 12 21 29 31 31 32 33 34 35 35 34 34 33 31 30 29 30 32 33 34 34 34 35 37 38 37 35 33 33 34 37 38 37 34 33 33 33 35 36 38 39 39 40 40 40 40 39 38 38 38 36 35 33 33 35 33 33 35 35 32 29 28 28 27 26 27 28 28 28 29
11 10 9 8 6 4 4 6 6 5 5 7 7 10 11 12 17 24 28 30 31 31 32 33 32 31 31 32 33 33 33 33 33 33 33 33 33 34 36 37 36 34 34 35 37 38 38 37 37 37 36 37 38 38 39 41 41 42 42 41 42 42 41 40 40 40 39 37 36 36 35 34 35 33 28 26 28 29 28 28 29 30 29 29 29
11 10 9 9 8 6 5 5 5 5 4 4 5 5 5 6 7 11 18 25 31 33 32 32 32 30 28 28 29 32 34 36 36 36 36 35 35 36 37 37 37 36 36 37 38 38 38 38 39 40 40 40 40 40 39 40 40 41 41 41 43 44 43 43 44 43 42 40 38 38 37 37 36 34 30 29 31 32 32 31 31 31 30 30 30
10 11 11 11 10 10 9 7 7 5 4 3 3 4 4 4 4 3 4 9 18 24 26 27 29 30 30 29 29 30 32 34 36 38 38 36 36 36 38 38 38 38 39 39 40 40 41 41 42 41 40 39 39 38 37 37 37 37 38 39 41 42 43 44 44 44 44 41 38 38 39 38 37 37 36 35 34 35 36 35 34 33 32 32 31
10 10 11 12 12 12 12 12 11 10 9 9 8 7 6 6 4 2 2 2 3 8 11 13 17 20 23 25 27 28 30 32 34 37 38 38 36 34 34 35 36 37 38 39 41 41 41 41 40 39 38 37 36 35 34 33 32 33 34 36 38 39 39 39 40 41 40 38 36 37 37 36 36 37 35 33 34 36 36 34 34 34 33 31 31
8 8 9 10 11 12 12 12 13 14 14 15 15 14 14 13 11 9 7 6 5 6 7 8 10 12 15 19 22 25 27 28 29 31 32 33 33 31 29 29 30 31 34 36 38 39 37 36 36 36 36 35 34 32 31 30 30 31 32 34 36 37 37 37 36 35 33 32 34 36 35 33 32 31 29 30 32 33 32 31 30 29 28 27 28
6 6 7 7 8 9 10 10 11 13 14 15 15 15 16 16 15 15 15 15 13 13 12 11 11 12 14 18 21 23 23 21 20 20 20 22 26 27 27 27 27 29 32 35 35 35 34 34 34 34 33 32 31 31 30 28 28 28 29 31 33 34 34 33 30 29 30 30 30 31 29 27 27 28 28 29 29 28 29 29 28 26 25 24 24
4 4 5 5 6 7 8 8 9 10 11 12 12 13 13 13 12 14 16 16 17 17 17 16 16 15 16 18 20 19 19 19 19 18 17 18 21 24 27 29 29 30 31 31 30 30 30 29 29 28 28 29 29 29 28 27 26 26 27 29 30 30 31 29 26 28 32 30 25 24 24 25 26 27 27 28 28 28 29 29 26 25 25 24 23
5 5 4 4 5 5 6 7 7 8 9 9 10 11 11 11 11 11 12 13 15 17 18 19 20 20 19 20 21 21 21 21 20 20 20 19 20 23 25 26 27 27 27 26 25 24 23 22 22 21 22 23 25 26 25 24 23 22 23 24 26 25 25 24 23 24 25 23 20 21 22 23 24 25 25 26 27 29 29 28 27 27 26 25 24
6 6 6 5 5 5 6 6 7 7 8 9 9 10 10 11 11 11 11 11 12 14 16 17 19 19 19 20 20 20 20 20 20 21 21 21 21 22 22 23 24 24 25 24 23 21 20 19 19 19 19 21 22 21 21 20 20 20 20 21 22 22 22 23 23 23 23 21 20 20 20 20 21 22 24 26 28 29 29 28 28 27 26 26 25
7 7 7 7 7 7 7 7 7 8 8 8 9 9 10 10 11 11 12 12 12 13 14 14 15 17 18 19 19 19 19 19 19 20 20 21 21 21 21 22 23 24 25 24 22 21 21 20 20 21 21 20 19 19 19 19 20 20 19 20 21 21 20 20 19 18 19 20 21 22 22 22 22 23 25 26 27 28 29 29 27 26 26 26 26
8 8 8 8 9 9 9 9 9 9 9 9 9 9 10 10 11 11 12 12 13 13 14 14 14 15 15 16 18 19 19 19 19 19 20 21 21 22 22 23 23 24 24 23 22 22 22 21 22 22 22 20 19 19 19 19 20 20 20 19 20 21 19 16 15 15 16 18 19 21 22 22 23 24 26 27 28 29 29 28 26 26 26 27 27
10 10 11 11 11 11 11 11 11 11 11 11 11 10 10 10 11 11 12 12 13 13 14 14 15 15 15 15 16 16 17 18 18 19 19 20 21 21 22 23 22 22 22 21 21 21 22 22 22 22 21 20 19 19 18 19 19 20 20 20 19 19 17 16 16 15 14 16 18 20 21 22 24 26 27 27 28 29 28 27 26 25 26 27 27
12 12 13 13 13 13 13 13 13 13 13 13 12 12 12 12 12 12 12 13 13 13 14 14 15 15 15 15 15 15 15 16 16 16 16 17 17 18 19 19 19 18 18 18 19 20 21 21 21 20 20 19 18 16 17 17 18 19 20 20 20 18 17 17 17 16 15 16 18 20 21 22 22 23 24 25 26 26 25 25 26 26 26 26 26
14 14 14 14 14 14 14 14 14 14 14 15 14 14 14 14 14 14 14 14 14 14 14 14 15 15 16 16 16 16 15 15 15 15 15 15 15 15 16 16 15 14 14 14 15 15 16 17 17 17 17 17 16 15 15 16 17 17 18 19 19 19 18 18 19 20 20 21 21 21 20 20 20 21 22 23 24 25 25 25 26 25 24 24 24
16 16 16 16 16 16 16 16 16 16 15 15 16 16 16 16 16 16 16 16 16 16 16 16 16 16 16 16 16 16 16 16 16 15 15 15 15 15 15 14 14 13 12 12 12 12 12 12 13 14 14 15 15 15 15 16 16 16 16 17 18 19 19 19 18 19 19 20 20 20 20 20 21 23 24 23 22 23 24 24 24 23 21 21 22
16 16 16 17 17 17 17 17 17 17 17 17 17 17 17 17 17 17 18 18 18 18 18 18 17 18 18 17 17 17 16 16 16 15 15 14 14 14 14 14 13 13 12 11 11 11 11 11 11 12 12 12 13 13 14 15 15 15 15 16 16 17 18 20 20 20 20 21 21 22 21 22 24 26 27 26 25 24 23 22 21 21 20 21 21
18 17 17 17 17 17 17 18 18 18 18 18 17 17 17 18 18 18 19 19 19 19 19 19 19 19 19 18 18 18 17 17 16 16 15 15 14 14 14 14 13 13 12 11 11 11 11 11 11 11 11 12 12 12 11 12 13 13 14 14 14 15 17 19 19 19 19 19 20 21 22 23 25 25 25 24 25 25 26 25 24 23 23 22 22
19 19 19 18 18 18 17 18 18 18 18 19 19 18 18 18 18 18 19 20 21 21 21 21 21 21 20 19 19 19 18 18 18 18 17 17 16 16 15 15 15 14 13 13 12 12 12 12 12 12 12 11 12 12 12 12 13 14 15 16 17 17 19 21 22 23 22 22 23 24 24 22 21 20 19 18 18 19 20 22 22 22 21 21 21
19 20 21 20 19 19 19 19 19 19 19 19 20 20 19 19 18 18 19 20 22 23 23 23 23 22 21 20 20 20 20 20 20 20 19 19 18 18 17 17 16 16 15 15 14 14 13 13 13 13 13 12 13 13 14 14 15 16 17 18 18 19 19 20 22 23 23 23 23 23 22 19 17 18 18 19 19 19 20 21 21 21 20 20 20
20 21 22 22 21 21 21 21 21 21 21 20 20 21 21 20 19 19 19 20 22 24 25 25 25 24 22 22 22 21 21 21 21 21 20 20 20 19 19 18 18 17 16 16 15 15 15 15 15 15 15 15 15 15 16 16 17 18 19 20 21 21 22 22 23 23 23 23 22 22 22 22 22 23 24 25 27 29 30 31 31 31 30 29 29
21 21 22 22 22 22 22 23 23 24 23 21 20 21 21 20 20 21 21 21 22 24 24 25 25 25 24 24 24 23 23 23 23 22 22 22 21 21 21 20 20 19 18 18 17 17 17 16 17 17 17 17 17 18 18 19 19 20 21 22 22 23 24 25 26 27 27 28 28 28 28 28 29 30 31 32 33 34 35 36 36 37 37 37 38
21 22 22 22 22 22 22 22 23 22 21 21 20 20 19 18 19 21 22 23 23 24 24 25 26 26 26 26 26 26 26 26 25 25 24 24 23 23 23 22 21 21 20 20 19 19 19 19 19 19 19 20 20 20 20 21 21 22 22 23 23 24 24 25 25 25 25 26 26 25 26 26 27 28 29 29 29 30 31 31 31 32 33 33 34
22 22 21 21 21 21 21 21 20 19 19 19 19 19 18 17 18 19 21 23 24 25 25 25 26 27 27 27 27 28 28 28 28 27 27 26 25 25 25 25 24 23 23 22 22 21 21 21 21 21 22 22 22 23 23 23 23 24 24 24 25 25 25 25 25 25 26 26 26 26 26 26 26 26 27 26 26 27 27 27 27 27 28 28 29
22 22 21 21 20 20 20 20 20 19 18 18 17 17 18 18 18 18 20 22 23 24 25 25 27 28 28 27 27 29 30 30 30 30 29 28 28 28 28 28 27 26 26 25 25 24 24 24 24 24 24 24 24 24 25 25 26 26 26 26 26 26 26 26 26 26 27 27 28 28 28 28 28 28 28 28 28 29 29 29 29 29 29 29 29
21 21 21 21 21 20 20 20 19 19 18 17 17 18 20 20 19 19 20 21 22 23 24 25 27 28 28 28 28 29 29 30 30 31 30 30 30 30 30 31 30 30 29 28 28 27 27 27 27 27 26 26 26 26 26 27 27 27 27 27 27 27 27 27 27 26 27 27 28 28 28 29 29 29 29 29 29 29 29 29 29 29 29 30 30
21 21 21 21 21 21 21 20 20 20 19 18 18 19 20 21 21 21 22 23 23 24 24 25 27 28 28 28 29 29 30 30 30 30 30 30 30 30 30 31 31 31 31 30 30 29 29 29 28 28 28 28 28 28 27 27 28 28 28 28 28 28 28 28 28 27 27 27 27 27 28 28 28 28 28 28 28 28 28 28 28 29 29 29 29
20 20 20 20 21 21 21 21 21 20 20 20 20 20 20 21 22 23 23 24 25 25 25 26 27 28 29 29 29 30 30 30 30 31 31 30 30 30 30 31 32 32 33 32 32 31 30 30 30 30 29 28 28 28 28 28 28 28 27 28 29 29 29 29 28 28 28 27 27 27 27 27 27 27 27 27 28 28 28 28 28 28 28 28 28
20 20 20 20 20 20 19 20 20 20 20 20 20 19 19 20 21 23 24 25 25 25 25 26 28 29 30 31 31 31 31 31 30 31 31 31 31 31 32 32 32 33 33 34 34 33 31 30 30 31 30 29 29 30 29 29 28 27 26 27 28 28 28 28 27 27 27 27 27 26 26 26 26 26 26 26 27 27 27 27 27 27 27 27 27
20 19 19 20 19 18 17 18 18 18 19 19 19 18 19 20 21 23 25 27 27 26 26 27 28 30 30 31 32 33 34 33 32 32 32 32 31 31 32 32 32 32 32 33 33 33 32 32 32 32 31 31 31 30 29 28 27 26 26 26 26 26 26 26 26 26 26 26 26 25 25 25 25 25 25 25 25 25 25 25 25 24 24 24 24
19 19 18 18 18 17 17 17 16 16 17 18 18 18 18 19 21 23 25 26 28 28 28 28 29 30 30 30 32 34 34 34 34 33 33 33 32 32 32 33 33 32 32 31 30 31 31 31 31 31 31 30 30 29 28 27 27 27 27 26 26 26 25 25 24 24 24 24 24 24 24 24 24 24 23 23 23 23 23 22 22 22 22 22 22
Wind_Direction
214 215 219 222 223 222 223 222 223 226 229 231 231 230 228 229 230 232 232 233 234 235 237 237 235 234 233 232 232 233 234 234 235 237 238 239 239 241 245 246 246 248 249 250 252 255 256 254 254 256 257 260 262 263 265 268 273 275 274 276 279 279 281 283 287 290 289 287 287 288 294 306 315 321 327 325 327 332 331 332 338 342 345 342 337
218 216 219 223 225 225 226 224 224 225 226 229 232 233 234 232 232 233 233 234 235 236 238 239 238 235 234 235 234 234 236 236 237 238 239 241 241 243 248 250 250 250 251 251 253 255 257 257 258 259 261 263 263 264 266 268 271 274 276 277 277 278 280 283 285 286 285 284 287 289 295 303 309 315 323 324 324 329 329 331 336 338 342 342 334
222 220 219 223 225 226 227 226 225 226 227 228 229 231 235 236 236 235 234 234 235 235 237 239 238 235 235 236 236 237 238 238 239 241 241 243 243 244 248 251 253 253 254 254 255 257 259 260 261 261 262 264 266 266 266 266 268 271 274 276 277 276 277 279 281 282 282 284 290 294 298 304 307 311 317 319 320 323 324 327 331 333 336 338 334
226 224 224 226 228 228 229 228 227 227 228 229 228 229 232 235 237 237 235 234 234 235 236 237 237 236 236 237 238 239 241 241 242 244 245 246 246 246 249 252 253 253 254 255 256 257 259 261 261 262 262 264 266 267 266 266 266 267 269 271 271 271 273 276 277 278 278 283 289 293 296 300 303 306 310 314 315 318 319 321 325 328 332 335 332
225 226 226 228 231 231 231 231 230 228 229 230 230 229 230 233 236 237 237 236 235 235 236 237 238 237 237 239 240 240 242 243 244 246 247 248 249 248 250 252 254 254 254 255 256 258 261 262 261 260 262 264 265 266 266 266 265 265 266 267 268 269 272 276 278 278 279 281 286 290 291 293 296 298 303 309 312 315 316 316 320 325 329 331 330
225 227 229 231 233 234 234 234 234 234 233 233 232 230 230 231 233 236 238 238 238 237 238 238 239 240 240 241 242 242 243 244 244 245 247 248 249 250 251 253 255 256 255 255 257 260 262 263 261 260 260 262 263 265 266 267 266 266 265 267 271 273 275 278 278 278 278 279 282 285 285 286 288 290 296 303 310 312 313 315 318 322 325 326 327
226 228 231 235 238 238 237 237 237 238 237 236 235 234 233 233 232 234 236 238 239 240 240 241 241 241 242 243 244 244 245 245 244 244 244 246 247 249 251 253 255 256 256 255 256 258 260 260 259 259 259 259 261 263 265 266 266 265 265 266 271 274 276 276 276 276 277 276 275 272 271 273 278 284 290 298 305 308 309 312 315 320 323 324 326
225 230 233 237 241 243 243 241 238 238 238 236 236 236 234 233 233 233 234 235 238 240 240 242 243 242 243 244 244 245 246 246 246 245 244 245 246 246 248 250 253 254 255 255 256 257 257 258 257 257 257 257 259 261 263 266 267 268 268 267 266 268 269 269 271 273 271 269 269 268 267 265 265 271 280 288 299 305 305 309 313 317 321 322 324
223 230 235 239 244 246 244 241 239 240 240 238 238 239 237 233 230 232 235 235 236 239 240 241 242 243 243 244 244 245 246 246 247 247 246 245 245 245 246 246 247 249 250 251 254 256 257 257 257 257 257 258 258 259 261 264 266 267 268 268 266 264 263 262 266 270 269 269 271 273 275 273 265 263 274 285 295 301 301 305 310 315 319 321 322
229 232 239 243 246 246 245 243 242 243 242 240 239 240 242 239 231 228 233 235 236 237 239 240 241 242 244 245 245 245 246 246 246 247 247 247 247 247 247 246 245 245 247 247 249 252 254 255 256 257 258 259 260 259 260 263 266 269 272 275 277 277 275 271 269 273 275 275 276 276 278 279 275 271 283 293 296 299 300 304 309 311 315 318 319
247 244 245 246 247 247 247 247 246 246 246 244 241 239 242 244 239 231 229 232 235 237 237 238 240 241 242 244 246 246 247 248 248 248 248 249 249 250 250 249 247 245 245 245 246 247 249 251 254 256 257 259 260 261 263 266 268 270 272 274 276 279 282 281 280 279 278 276 276 277 280 282 278 272 280 292 295 299 301 304 308 310 312 315 316
257 254 251 250 248 248 249 250 250 250 250 249 247 244 243 245 246 243 238 233 233 234 236 238 238 240 241 243 244 246 248 249 249 250 251 251 251 252 253 253 253 252 252 251 248 248 249 251 252 255 258 261 264 267 269 270 269 269 269 270 271 272 276 279 280 279 279 278 278 279 282 282 279 276 283 290 292 296 298 300 305 307 309 311 311
261 259 256 253 251 249 249 251 253 254 253 252 251 249 247 245 246 248 247 242 236 232 234 238 238 238 239 241 243 244 248 251 250 249 251 253 252 252 254 254 255 256 258 259 257 252 250 252 253 255 259 263 267 270 272 271 269 269 270 271 271 271 272 273 273 273 276 279 278 278 280 280 279 282 291 289 288 291 294 297 301 303 305 307 306
268 264 260 256 252 249 248 249 252 253 252 252 252 250 248 247 246 246 247 249 246 237 231 234 237 237 237 238 239 240 243 248 250 248 249 252 254 255 256 258 259 259 258 259 261 261 257 255 255 254 254 259 266 270 271 271 271 271 272 273 274 275 275 275 275 275 274 275 274 275 277 278 280 286 291 286 285 288 291 294 297 299 303 304 303
257 259 259 256 251 248 247 247 249 250 250 251 251 250 247 245 244 244 244 248 252 247 238 234 237 239 239 240 241 240 241 243 246 247 247 250 254 256 258 261 262 263 260 255 256 261 263 262 260 258 253 253 261 267 269 270 272 273 273 275 276 277 278 278 279 279 277 274 273 273 274 278 283 287 285 282 283 286 288 292 295 298 301 301 301
251 254 255 255 255 254 254 255 255 254 252 251 250 249 247 243 241 241 242 243 248 251 248 240 238 240 241 242 243 244 244 245 246 245 244 247 250 253 257 260 261 264 265 263 257 257 260 264 265 264 260 257 261 266 268 269 271 271 272 273 275 276 278 279 279 279 279 278 275 273 275 278 281 281 279 279 282 285 288 291 293 296 297 297 300
254 257 258 259 260 263 269 273 270 261 254 252 251 249 247 245 241 239 240 240 243 248 248 243 240 239 241 243 244 245 247 249 250 248 246 247 250 252 254 259 263 265 268 269 266 259 257 260 261 261 262 266 267 267 267 267 268 270 271 272 272 273 275 276 276 276 278 278 274 271 272 275 274 273 274 277 280 283 286 289 290 290 288 290 296
257 260 260 258 258 263 274 290 293 276 261 258 258 255 251 249 246 241 238 238 240 243 245 244 241 239 241 245 247 248 249 250 251 250 249 249 252 253 253 256 261 265 267 269 270 264 256 256 258 260 264 268 268 267 267 267 268 269 270 270 270 271 273 273 273 273 275 276 272 269 269 270 269 269 271 274 277 280 282 284 285 283 284 288 291
257 258 258 256 263 273 274 290 320 316 289 277 275 267 254 244 243 243 240 238 238 238 240 243 243 241 244 247 248 250 252 252 252 252 251 251 252 253 253 254 257 261 264 269 272 269 262 258 259 262 264 265 267 268 268 267 268 269 270 270 270 271 271 270 269 269 270 271 270 269 270 270 269 268 268 271 274 275 277 279 278 278 282 286 286
255 258 262 265 283 306 294 278 294 301 285 280 287 289 268 236 231 240 245 242 239 238 238 241 244 245 248 250 249 249 251 253 253 254 254 254 253 254 254 254 255 257 261 266 269 268 267 264 262 261 262 264 267 269 270 270 270 269 270 271 272 272 272 271 271 270 270 270 268 267 268 270 269 265 263 266 270 272 274 275 273 274 279 281 279
261 266 272 276 294 323 325 312 304 287 277 278 281 288 290 258 237 243 248 246 244 240 237 238 241 244 247 249 249 250 253 255 255 255 256 256 256 256 256 256 255 255 257 263 266 267 267 268 268 268 269 269 269 270 271 271 271 270 271 272 274 275 274 274 275 276 275 274 271 268 269 269 267 262 257 259 266 272 275 274 272 275 277 277 277
268 273 278 278 283 307 324 331 338 334 317 310 300 284 281 271 254 248 247 247 246 241 235 234 236 239 242 245 249 251 254 255 256 257 258 258 257 258 258 257 256 256 257 261 264 265 266 268 270 272 272 272 272 272 271 271 271 271 272 273 274 275 274 272 272 271 270 269 267 267 269 269 265 261 259 263 269 273 274 273 273 276 277 276 276
270 276 283 285 281 280 289 307 326 346 357 354 349 329 299 287 274 259 252 249 246 243 238 234 234 236 238 243 250 254 254 253 255 257 259 259 259 259 259 259 258 258 259 260 262 264 265 268 271 273 273 273 273 273 272 271 271 272 273 273 273 272 272 270 268 268 266 265 266 266 265 264 263 261 265 271 273 275 276 273 273 275 276 274 274
276 279 285 289 286 280 280 282 285 297 314 315 324 334 329 330 344 333 286 260 247 242 241 240 240 242 243 245 251 256 255 253 253 254 255 257 258 260 261 262 261 261 261 261 262 264 267 270 273 274 274 273 273 272 271 271 271 271 271 271 271 270 270 268 267 266 265 263 264 264 262 262 263 263 265 267 269 273 276 274 272 273 273 274 277
292 291 291 292 290 285 281 277 271 271 274 271 267 270 274 278 284 292 319 317 260 240 239 242 245 247 248 249 252 255 255 254 254 253 253 254 256 259 262 263 262 262 263 264 265 267 269 272 274 274 273 273 272 273 273 272 273 273 272 272 271 270 271 269 267 266 265 265 265 263 260 262 264 262 262 264 266 270 273 272 272 272 272 275 279
307 306 303 299 297 294 289 283 278 276 276 274 270 266 261 256 250 243 240 240 241 244 252 264 269 262 257 257 257 256 254 251 250 251 250 250 252 256 261 266 268 267 267 267 268 270 271 273 274 273 273 273 273 274 274 274 275 275 274 273 272 270 269 270 268 267 267 266 264 260 258 261 261 257 258 263 265 267 269 270 272 273 274 277 280
324 320 316 310 305 303 300 294 288 285 283 282 280 277 273 265 254 245 239 235 235 241 247 258 268 270 270 269 265 263 263 261 259 258 253 248 250 253 255 259 261 262 264 267 271 274 274 274 273 273 273 273 274 274 275 276 277 278 276 274 273 270 267 266 268 267 263 259 258 258 256 254 253 254 257 261 263 266 271 273 272 272 275 279 281
347 344 339 332 324 319 315 311 306 300 296 295 294 292 290 286 276 261 252 247 246 248 249 249 251 257 265 269 269 271 275 275 273 271 262 250 247 250 252 253 256 259 264 269 274 278 278 275 273 271 271 272 273 274 276 276 277 278 276 274 274 272 265 260 263 268 264 256 249 249 246 241 242 248 253 257 262 269 273 271 268 268 272 277 279
343 344 347 344 336 330 326 322 321 318 315 313 313 311 307 306 302 293 281 270 263 260 259 258 259 261 262 264 266 270 274 274 273 272 268 261 255 256 258 261 263 266 269 273 278 282 283 279 274 272 274 275 275 275 276 274 274 277 279 276 274 271 262 255 255 260 256 245 235 235 237 236 239 246 252 258 263 267 267 264 263 266 271 274 277
325 327 332 333 332 331 328 326 324 321 319 317 316 315 313 310 308 305 300 292 283 276 272 269 267 267 265 264 266 267 269 271 271 270 270 269 266 266 267 269 271 272 275 279 283 288 289 284 278 276 278 280 279 278 278 276 275 278 280 277 272 266 259 252 248 242 234 227 225 229 233 236 241 248 256 258 258 258 258 259 263 267 270 273 278
314 314 314 315 317 318 318 319 319 317 316 315 312 310 308 306 305 303 301 298 293 289 284 279 275 272 269 267 267 267 266 265 265 264 264 264 264 265 266 268 271 274 277 280 283 287 288 284 278 275 276 277 279 282 283 282 280 280 281 276 267 261 255 248 240 228 217 216 222 229 235 241 245 249 250 248 247 250 255 260 264 267 271 275 279
303 305 304 305 306 306 307 308 308 308 308 308 307 307 305 303 302 300 298 297 295 292 289 286 282 278 275 272 270 270 270 269 268 268 269 269 269 270 270 270 271 272 274 278 282 285 286 284 279 276 275 276 278 281 283 284 283 283 283 277 267 260 252 241 232 227 222 222 229 234 236 236 237 238 240 242 247 253 258 262 266 270 273 277 280
289 292 294 295 296 297 298 299 299 300 300 299 299 300 299 299 298 297 295 294 293 292 291 289 287 284 282 280 277 276 275 275 275 275 274 275 276 277 277 278 278 277 278 281 283 283 283 284 282 279 276 275 275 277 279 282 283 282 281 276 268 258 247 235 231 233 231 228 230 231 230 229 231 236 243 250 256 261 264 267 271 274 277 279 280
288 288 289 290 291 292 292 293 293 293 294 294 295 295 294 293 292 292 291 290 289 288 287 287 288 288 288 287 286 286 285 285 285 286 286 286 285 284 284 285 287 287 285 283 282 280 280 281 282 282 279 275 272 272 273 276 279 279 277 272 264 255 245 237 235 237 236 232 232 234 235 239 246 253 259 264 268 272 275 277 278 278 279 281 282
294 293 293 293 292 292 291 290 289 289 288 289 290 290 290 290 289 287 286 285 284 284 283 282 283 284 286 288 289 290 290 291 292 293 294 295 296 295 295 294 295 295 291 287 285 283 281 281 283 284 283 280 275 271 268 267 269 271 270 265 259 253 247 243 240 239 238 236 239 246 253 260 268 274 276 276 278 278 280 283 284 283 284 285 285
293 294 295 295 294 294 293 291 290 288 286 285 285 285 286 286 286 285 284 282 280 280 279 279 279 280 281 284 286 288 290 291 292 293 294 295 296 297 299 300 300 298 293 289 287 286 285 285 285 284 283 282 279 275 271 266 264 261 258 256 256 255 253 249 247 247 249 252 258 266 271 274 277 278 277 279 282 283 284 286 287 286 287 289 289
289 290 291 291 292 292 292 291 290 289 287 285 283 282 282 282 283 283 283 281 281 279 278 278 277 277 277 279 280 282 284 285 287 288 289 291 292 293 294 295 296 297 296 293 290 287 286 287 287 286 285 282 279 276 272 267 263 261 259 257 256 259 260 259 257 258 260 263 263 264 266 272 278 281 280 279 280 281 285 289 292 292 292 292 291
291 291 290 289 289 288 288 288 287 286 286 285 283 281 280 279 280 282 282 283 282 279 277 276 275 275 275 276 276 277 278 279 280 281 283 284 286 287 287 287 288 290 292 291 290 288 287 285 285 286 287 285 282 278 271 260 252 251 252 251 251 255 259 258 258 258 259 259 261 266 273 278 281 282 283 283 280 278 279 283 288 292 294 295 295
293 294 294 294 292 290 287 285 283 282 281 281 280 279 278 276 276 277 279 282 283 282 280 278 275 274 275 275 274 274 274 274 275 276 277 278 279 280 280 281 281 282 283 283 284 284 283 282 281 280 279 280 280 279 277 270 260 253 250 250 251 254 254 255 259 265 269 272 275 280 283 283 280 280 285 290 290 286 284 282 284 287 290 292 294
293 294 295 296 295 293 290 286 282 279 277 276 276 276 276 275 274 273 274 275 278 280 280 280 278 276 275 274 273 272 272 272 273 273 273 273 274 274 275 275 276 276 277 277 278 278 278 278 279 278 275 272 270 269 270 270 269 267 264 262 261 260 259 258 260 265 268 270 272 274 274 274 277 281 284 285 285 284 283 282 282 283 284 286 289
293 293 293 293 293 292 290 288 285 281 277 274 272 272 273 273 272 272 271 270 271 273 275 277 277 277 275 272 271 270 270 270 270 270 270 270 270 270 270 270 270 270 271 271 272 273 274 274 274 275 274 273 271 269 267 265 264 265 265 265 265 265 265 264 264 265 266 267 268 268 269 270 272 274 275 275 276 277 278 278 278 277 277 276 277
290 289 290 290 290 289 288 286 285 284 282 278 272 268 269 271 273 272 270 269 268 269 270 271 273 274 274 273 271 270 269 268 268 268 268 269 269 269 269 269 270 270 270 270 271 272 273 274 274 274 274 274 273 271 270 268 266 265 264 264 265 265 266 266 267 268 269 270 270 271 271 272 273 273 273 273 274 276 277 278 279 279 279 279 278
289 289 289 289 289 288 286 285 284 283 282 280 276 272 270 271 273 273 273 271 270 269 268 269 269 270 270 270 270 270 269 268 268 268 268 269 269 270 270 270 271 272 272 272 273 273 274 275 276 277 277 277 276 275 273 271 270 268 266 266 266 266 266 267 268 269 270 272 273 274 274 275 276 276 277 278 279 279 280 281 281 281 282 283 283
292 291 290 289 288 287 286 284 283 280 278 278 278 279 277 274 272 271 271 272 272 270 269 268 269 269 268 268 268 269 269 269 269 269 269 269 269 270 271 271 272 273 272 272 273 274 274 275 276 277 278 278 278 277 276 275 273 272 271 270 269 269 269 269 269 269 270 271 272 273 273 274 275 276 278 280 282 283 284 284 285 285 285 285 285
294 293 292 291 289 288 286 285 283 280 278 277 278 277 276 273 270 267 266 267 268 269 270 269 270 271 271 270 268 267 268 269 269 269 269 270 270 272 274 274 275 275 275 275 274 274 274 274 274 274 275 276 276 277 277 276 276 275 275 274 274 274 274 274 273 272 272 272 273 273 274 275 276 277 279 280 281 282 283 284 284 284 284 284 284
294 294 294 293 292 290 289 287 284 281 279 278 276 274 272 270 267 264 263 263 264 267 269 271 272 274 274 274 272 270 269 269 269 269 270 271 272 274 276 277 278 278 278 277 277 276 276 276 275 274 273 273 273 274 276 277 277 278 278 278 278 277 276 275 274 274 274 274 275 275 277 278 278 279 280 281 282 283 284 284 285 285 285 285 285
294 294 294 294 293 292 289 286 283 280 279 276 273 271 270 270 268 265 264 264 264 266 269 272 274 275 275 275 274 273 272 272 272 271 271 271 272 273 275 276 277 277 277 277 277 277 277 277 277 275 274 272 272 272 273 274 276 278 279 280 279 278 277 276 275 275 274 274 274 275 276 278 279 280 281 282 283 284 285 286 286 287 286 286 286
296 295 295 293 291 289 288 286 284 283 280 277 272 269 267 268 267 266 263 263 263 264 266 268 271 272 272 271 271 271 271 271 272 272 272 271 271 272 273 275 275 276 276 276 276 276 276 276 276 275 275 274 273 273 273 274 275 276 278 278 277 276 276 276 275 275 274 274 274 275 275 276 277 279 280 282 283 284 285 286 286 286 286 286 287
297 296 294 292 289 288 286 285 283 281 278 274 272 269 266 264 263 263 262 262 262 262 263 265 266 267 268 268 268 269 270 270 270 271 272 272 272 273 274 274 274 275 275 276 276 276 274 273 273 274 274 275 275 276 276 277 277 276 276 275 275 274 274 274 274 274 275 275 275 275 276 276 277 278 279 280 281 282 283 284 284 284 285 285 285
298 296 295 294 293 292 289 286 284 281 278 275 272 269 266 263 261 261 261 262 262 262 262 263 264 265 267 268 269 270 271 271 272 273 273 274 275 276 276 276 277 277 277 277 276 275 273 272 272 274 275 276 277 277 278 279 279 278 276 274 273 273 272 272 272 273 273 274 274 275 276 276 277 278 278 279 280 281 281 281 282 282 283 284 284
298 298 297 296 295 294 291 289 286 284 282 279 275 271 267 264 262 263 264 264 264 263 263 263 263 263 264 265 266 268 270 271 272 274 276 277 278 279 279 280 281 281 279 277 276 275 275 274 274 275 275 275 275 275 277 278 279 278 276 274 273 272 271 271 271 271 272 272 273 274 274 275 275 276 277 277 278 279 280 281 282 282 283 285 285
Height
3208 3209 3210 3211 3212 3214 3215 3216 3217 3217 3218 3219 3220 3221 3222 3223 3224 3224 3225 3226 3227 3228 3229 3229 3230 3231 3231 3232 3232 3233 3233 3234 3234 3234 3235 3236 3236 3237 3237 3237 3237 3238 3238 3238 3238 3239 3239 3239 3239 3239 3239 3239 3239 3239 3239 3239 3239 3238 3238 3238 3237 3237 3236 3236 3235 3234 3234 3234 3234 3233 3232 3232 3231 3231 3231 3230 3229 3228 3227 3226 3225 3224 3223 3222 3220
3206 3207 3208 3209 3210 3211 3212 3213 3214 3215 3216 3217 3218 3219 3220 3221 3222 3223 3224 3224 3225 3226 3227 3228 3229 3229 3230 3231 3231 3231 3232 3232 3233 3233 3234 3234 3235 3235 3235 3235 3236 3236 3236 3237 3237 3237 3237 3237 3237 3238 3238 3238 3238 3238 3238 3238 3237 3237 3236 3236 3235 3235 3234 3234 3234 3233 3233 3232 3232 3231 3231 3231 3230 3230 3229 3229 3228 3227 3226 3225 3224 3223 3223 3222 3220
3204 3205 3206 3207 3208 3209 3210 3211 3212 3213 3214 3215 3216 3217 3218 3219 3220 3221 3222 3222 3223 3224 3225 3226 3227 3227 3228 3229 3230 3230 3230 3231 3231 3232 3232 3232 3233 3233 3234 3234 3234 3235 3235 3235 3235 3235 3236 3236 3236 3236 3236 3236 3236 3236 3236 3236 3236 3235 3235 3234 3234 3233 3233 3232 3232 3232 3232 3231 3230 3230 3229 3229 3229 3229 3228 3228 3227 3226 3225 3224 3224 3223 3222 3221 3219
3202 3203 3204 3205 3206 3207 3208 3209 3210 3211 3212 3213 3214 3215 3216 3217 3218 3219 3220 3220 3221 3222 3223 3223 3224 3225 3226 3227 3228 3228 3229 3229 3230 3230 3231 3231 3231 3232 3232 3232 3232 3233 3233 3233 3234 3234 3234 3234 3234 3234 3234 3234 3234 3234 3234 3234 3234 3234 3233 3233 3232 3232 3231 3231 3231 3231 3230 3229 3229 3229 3228 3228 3227 3227 3227 3226 3226 3225 3224 3224 3223 3222 3221 3220 3219
3199 3200 3202 3203 3203 3204 3205 3206 3207 3208 3209 3210 3211 3213 3214 3215 3215 3216 3217 3218 3219 3220 3220 3221 3222 3223 3224 3225 3226 3226 3227 3227 3228 3228 3229 3229 3229 3230 3230 3230 3230 3231 3231 3231 3231 3232 3232 3232 3232 3232 3232 3232 3232 3232 3232 3232 3232 3232 3231 3231 3230 3230 3229 3229 3229 3229 3228 3228 3228 3227 3227 3226 3226 3226 3225 3225 3224 3223 3223 3222 3222 3221 3220 3219 3218
3196 3197 3198 3199 3200 3201 3203 3204 3205 3206 3208 3208 3209 3210 3211 3212 3213 3214 3215 3216 3216 3217 3218 3219 3220 3221 3222 3222 3223 3224 3224 3225 3225 3226 3226 3227 3227 3228 3228 3228 3228 3229 3229 3229 3229 3229 3230 3230 3230 3230 3230 3230 3230 3230 3230 3230 3230 3229 3229 3229 3228 3228 3228 3227 3227 3227 3227 3226 3226 3226 3225 3225 3224 3224 3223 3223 3223 3222 3221 3221 3220 3219 3219 3218 3217
3192 3193 3195 3196 3197 3199 3200 3201 3203 3204 3205 3206 3207 3208 3209 3209 3210 3211 3212 3213 3214 3215 3216 3216 3217 3218 3219 3220 3221 3221 3222 3222 3222 3223 3224 3224 3224 3225 3225 3226 3226 3226 3227 3227 3227 3227 3227 3228 3228 3228 3228 3228 3228 3228 3228 3227 3227 3227 3227 3226 3226 3226 3226 3225 3225 3225 3225 3224 3224 3224 3223 3222 3222 3222 3221 3221 3221 3220 3220 3219 3218 3218 3217 3216 3215
3188 3190 3191 3193 3194 3196 3198 3198 3199 3200 3201 3203 3204 3205 3206 3207 3207 3209 3209 3210 3211 3212 3213 3214 3215 3216 3217 3217 3218 3219 3219 3219 3220 3220 3221 3221 3222 3222 3223 3223 3223 3224 3224 3225 3225 3225 3225 3226 3226 3226 3226 3226 3226 3226 3225 3225 3225 3225 3225 3224 3224 3224 3224 3223 3223 3223 3222 3222 3222 3221 3221 3220 3219 3219 3219 3218 3218 3218 3218 3218 3217 3216 3215 3214 3213
3183 3186 3188 3190 3191 3193 3194 3195 3196 3197 3198 3200 3201 3202 3203 3203 3203 3205 3207 3208 3209 3210 3211 3211 3212 3213 3214 3214 3215 3216 3217 3217 3217 3218 3219 3219 3220 3220 3220 3220 3220 3221 3221 3222 3222 3223 3223 3223 3223 3223 3223 3223 3223 3223 3223 3223 3223 3223 3223 3222 3221 3221 3221 3221 3220 3220 3220 3220 3220 3220 3219 3219 3217 3215 3215 3215 3216 3216 3216 3216 3215 3214 3213 3212 3211
3179 3182 3185 3187 3188 3189 3190 3191 3193 3194 3195 3197 3198 3199 3200 3200 3200 3200 3203 3205 3206 3207 3208 3209 3210 3211 3211 3212 3213 3214 3214 3214 3215 3216 3217 3217 3217 3217 3217 3217 3217 3218 3218 3218 3219 3220 3220 3220 3221 3220 3220 3220 3221 3221 3221 3221 3220 3221 3221 3220 3220 3220 3220 3218 3217 3217 3218 3218 3218 3217 3217 3217 3215 3212 3211 3213 3213 3213 3213 3213 3213 3212 3211 3211 3209
3176 3179 3181 3183 3184 3185 3186 3188 3189 3190 3192 3194 3195 3196 3198 3199 3199 3197 3198 3200 3202 3204 3205 3206 3207 3208 3209 3210 3211 3211 3212 3212 3213 3214 3215 3214 3215 3215 3215 3215 3215 3215 3215 3215 3216 3216 3217 3217 3218 3218 3218 3218 3218 3218 3218 3218 3218 3218 3218 3218 3217 3217 3217 3216 3215 3215 3215 3215 3216 3215 3214 3214 3214 3212 3210 3211 3212 3211 3212 3211 3211 3210 3209 3209 3207
3175 3176 3178 3179 3180 3181 3183 3184 3185 3186 3188 3190 3191 3193 3194 3196 3197 3196 3195 3196 3197 3199 3201 3203 3204 3205 3206 3207 3208 3209 3209 3209 3210 3212 3212 3212 3212 3212 3212 3212 3212 3212 3213 3213 3213 3213 3214 3214 3215 3215 3215 3215 3215 3216 3216 3216 3216 3216 3215 3215 3214 3214 3213 3214 3213 3213 3213 3213 3213 3213 3212 3212 3213 3211 3209 3209 3210 3210 3210 3210 3209 3208 3207 3206 3205
3173 3173 3173 3174 3175 3177 3179 3181 3182 3183 3185 3186 3187 3189 3190 3191 3192 3193 3193 3194 3193 3194 3196 3199 3200 3201 3203 3204 3204 3206 3206 3206 3207 3208 3209 3209 3209 3209 3209 3209 3209 3210 3210 3210 3210 3210 3210 3211 3211 3211 3212 3212 3212 3213 3213 3213 3213 3213 3212 3212 3212 3211 3210 3210 3210 3210 3210 3210 3210 3211 3210 3210 3211 3209 3207 3207 3208 3208 3208 3208 3207 3207 3205 3204 3203
3170 3170 3170 3170 3170 3172 3175 3177 3178 3179 3181 3182 3183 3185 3186 3187 3187 3188 3189 3190 3191 3190 3190 3193 3195 3196 3198 3199 3200 3201 3202 3201 3202 3204 3205 3205 3206 3206 3206 3206 3207 3207 3207 3207 3207 3207 3207 3208 3208 3208 3208 3208 3208 3209 3210 3210 3210 3210 3210 3209 3209 3209 3208 3208 3208 3208 3208 3208 3208 3208 3208 3207 3207 3206 3205 3206 3206 3205 3205 3205 3205 3205 3204 3202 3201
3168 3167 3167 3167 3167 3168 3170 3172 3173 3175 3176 3178 3179 3180 3181 3182 3182 3183 3184 3186 3187 3187 3187 3189 3191 3193 3195 3196 3196 3196 3196 3196 3197 3199 3201 3202 3202 3203 3204 3204 3204 3203 3202 3202 3203 3204 3204 3205 3205 3205 3204 3203 3204 3206 3206 3206 3206 3206 3206 3206 3206 3206 3206 3206 3206 3206 3206 3205 3205 3205 3205 3204 3203 3202 3202 3203 3203 3203 3203 3203 3202 3202 3202 3200 3199
3166 3166 3165 3165 3165 3166 3167 3169 3169 3170 3171 3172 3173 3175 3176 3176 3177 3178 3179 3181 3183 3185 3186 3188 3188 3189 3191 3192 3193 3194 3194 3194 3194 3196 3197 3198 3198 3199 3200 3200 3200 3199 3200 3200 3201 3200 3201 3201 3201 3202 3201 3199 3199 3202 3202 3202 3202 3202 3202 3202 3203 3203 3203 3203 3203 3203 3203 3203 3203 3203 3201 3200 3199 3200 3200 3200 3200 3200 3200 3200 3199 3199 3199 3198 3197
3164 3164 3164 3163 3163 3164 3165 3165 3165 3165 3166 3167 3168 3169 3170 3171 3171 3171 3174 3177 3179 3180 3183 3185 3185 3186 3187 3188 3190 3190 3191 3193 3194 3194 3194 3195 3195 3196 3196 3196 3196 3197 3198 3199 3199 3199 3198 3197 3198 3198 3197 3195 3195 3197 3199 3198 3198 3198 3198 3198 3199 3199 3199 3200 3200 3199 3199 3199 3200 3200 3199 3197 3197 3197 3197 3197 3197 3197 3197 3197 3196 3196 3196 3196 3195
3162 3162 3162 3162 3162 3162 3162 3162 3162 3161 3161 3162 3164 3164 3165 3165 3166 3167 3169 3172 3174 3176 3179 3181 3181 3182 3183 3185 3186 3187 3188 3189 3190 3190 3191 3192 3193 3193 3193 3193 3193 3194 3195 3195 3195 3196 3195 3193 3193 3193 3192 3192 3193 3194 3195 3195 3194 3194 3195 3194 3194 3195 3196 3196 3196 3196 3196 3196 3196 3196 3196 3195 3195 3194 3194 3194 3194 3194 3194 3193 3193 3193 3193 3192 3192
3160 3160 3160 3160 3161 3160 3160 3160 3159 3159 3159 3160 3161 3161 3159 3157 3160 3164 3165 3167 3169 3171 3173 3176 3177 3178 3179 3181 3182 3183 3183 3184 3186 3186 3187 3188 3189 3189 3189 3189 3189 3190 3190 3190 3191 3191 3190 3188 3187 3187 3188 3189 3190 3190 3191 3191 3191 3191 3190 3190 3190 3191 3193 3192 3190 3190 3191 3192 3192 3192 3192 3192 3191 3191 3191 3191 3191 3191 3191 3190 3190 3190 3190 3189 3189
3159 3159 3159 3159 3159 3159 3158 3158 3157 3157 3158 3159 3159 3159 3155 3152 3155 3160 3163 3163 3164 3166 3168 3171 3173 3174 3175 3176 3177 3179 3179 3180 3182 3182 3183 3184 3185 3185 3185 3185 3186 3186 3186 3187 3187 3188 3187 3186 3184 3183 3185 3186 3186 3186 3186 3186 3187 3187 3186 3185 3186 3187 3188 3187 3185 3185 3186 3187 3187 3187 3188 3188 3187 3187 3187 3187 3187 3187 3188 3187 3187 3187 3186 3185 3185
3158 3158 3158 3158 3158 3158 3157 3157 3156 3155 3156 3156 3156 3157 3155 3153 3155 3158 3160 3160 3161 3162 3164 3166 3169 3171 3172 3173 3174 3175 3176 3177 3178 3179 3179 3180 3180 3181 3181 3181 3182 3183 3183 3183 3184 3184 3184 3183 3181 3179 3181 3182 3182 3182 3182 3182 3182 3182 3182 3182 3182 3183 3184 3183 3182 3182 3182 3182 3182 3183 3184 3185 3183 3182 3182 3182 3183 3184 3184 3184 3184 3183 3183 3182 3181
3157 3157 3157 3157 3157 3157 3157 3156 3155 3155 3154 3154 3154 3155 3155 3155 3155 3156 3157 3158 3158 3159 3160 3162 3165 3167 3168 3170 3171 3172 3172 3173 3173 3174 3175 3176 3176 3177 3177 3178 3179 3179 3179 3180 3180 3180 3180 3179 3178 3176 3177 3178 3178 3178 3178 3178 3177 3177 3177 3178 3177 3177 3178 3178 3177 3177 3177 3177 3178 3178 3179 3180 3179 3179 3178 3179 3179 3180 3180 3180 3180 3179 3179 3179 3178
3156 3156 3156 3156 3156 3156 3156 3156 3155 3155 3154 3154 3154 3154 3154 3154 3153 3153 3154 3155 3155 3156 3158 3159 3161 3163 3165 3166 3167 3168 3169 3169 3170 3171 3171 3172 3173 3173 3174 3174 3175 3175 3175 3175 3176 3176 3175 3175 3174 3173 3173 3173 3173 3173 3173 3173 3172 3172 3173 3173 3172 3171 3172 3172 3171 3171 3172 3172 3173 3174 3174 3174 3174 3174 3176 3176 3176 3176 3176 3176 3176 3175 3175 3175 3175
3156 3156 3156 3155 3155 3155 3155 3155 3155 3155 3155 3154 3154 3154 3153 3153 3152 3152 3152 3152 3153 3154 3155 3157 3159 3161 3162 3163 3163 3164 3164 3165 3166 3167 3167 3168 3169 3169 3170 3170 3171 3171 3171 3171 3171 3171 3171 3171 3170 3169 3169 3168 3168 3168 3168 3168 3168 3168 3168 3167 3166 3165 3165 3165 3165 3166 3166 3167 3168 3169 3169 3169 3168 3169 3171 3173 3173 3172 3171 3171 3171 3171 3171 3171 3171
3155 3155 3155 3155 3155 3154 3155 3155 3155 3155 3155 3155 3155 3154 3154 3153 3152 3152 3152 3152 3152 3153 3154 3156 3157 3158 3159 3160 3161 3161 3161 3161 3162 3162 3163 3164 3165 3166 3166 3166 3167 3167 3167 3167 3167 3167 3167 3167 3166 3165 3164 3164 3163 3163 3163 3163 3163 3163 3162 3162 3161 3160 3160 3160 3159 3159 3160 3161 3162 3162 3162 3163 3164 3165 3166 3168 3168 3167 3166 3166 3166 3167 3167 3167 3166
3155 3155 3155 3154 3154 3154 3154 3154 3154 3154 3154 3154 3154 3154 3154 3153 3152 3152 3151 3151 3152 3152 3153 3154 3155 3157 3158 3158 3158 3158 3157 3157 3157 3158 3159 3160 3162 3162 3163 3163 3163 3163 3163 3162 3163 3163 3163 3163 3161 3160 3160 3159 3159 3159 3159 3159 3159 3158 3157 3156 3155 3155 3154 3154 3154 3154 3155 3156 3156 3156 3156 3158 3160 3160 3161 3162 3162 3162 3162 3162 3162 3162 3163 3163 3162
3154 3154 3154 3154 3153 3153 3153 3153 3152 3152 3152 3152 3153 3153 3153 3152 3152 3152 3151 3151 3151 3151 3152 3153 3153 3155 3155 3155 3155 3155 3154 3154 3154 3155 3156 3158 3159 3159 3159 3160 3160 3159 3159 3159 3159 3159 3159 3158 3157 3156 3156 3155 3154 3154 3154 3154 3154 3153 3153 3151 3151 3150 3150 3150 3151 3150 3149 3150 3151 3152 3153 3154 3155 3156 3157 3158 3158 3158 3158 3158 3158 3158 3159 3159 3159
3154 3154 3154 3154 3153 3153 3153 3152 3152 3152 3151 3151 3151 3151 3151 3151 3151 3151 3151 3150 3150 3150 3150 3151 3151 3152 3152 3152 3152 3152 3153 3153 3153 3153 3154 3155 3156 3155 3155 3156 3156 3155 3155 3155 3155 3154 3154 3153 3153 3152 3151 3151 3150 3150 3150 3150 3149 3149 3148 3147 3146 3146 3145 3146 3147 3146 3144 3145 3148 3150 3150 3150 3151 3152 3153 3154 3154 3154 3155 3155 3155 3155 3155 3155 3155
3154 3154 3154 3153 3153 3153 3153 3152 3152 3151 3151 3150 3150 3150 3149 3149 3149 3149 3149 3149 3149 3149 3149 3149 3148 3149 3149 3149 3149 3150 3150 3150 3150 3151 3151 3152 3152 3152 3152 3152 3152 3152 3152 3152 3151 3151 3150 3150 3149 3148 3148 3147 3147 3146 3146 3146 3145 3145 3144 3143 3143 3142 3142 3143 3143 3143 3142 3143 3145 3146 3146 3147 3148 3148 3149 3150 3150 3151 3151 3151 3152 3152 3151 3151 3151
3154 3153 3153 3153 3153 3153 3152 3152 3151 3151 3151 3150 3150 3149 3149 3148 3148 3148 3147 3147 3147 3147 3147 3147 3146 3146 3147 3147 3147 3147 3147 3147 3148 3148 3148 3149 3149 3149 3149 3149 3149 3149 3149 3149 3148 3148 3147 3147 3146 3145 3145 3144 3144 3143 3143 3142 3142 3141 3141 3140 3140 3140 3140 3140 3140 3140 3140 3140 3141 3142 3143 3144 3145 3145 3145 3146 3146 3147 3148 3148 3148 3148 3148 3147 3147
3153 3152 3152 3152 3152 3152 3151 3151 3151 3150 3150 3149 3149 3148 3148 3148 3147 3147 3147 3146 3146 3146 3146 3145 3145 3145 3145 3145 3145 3145 3146 3146 3146 3146 3146 3147 3147 3147 3147 3147 3146 3146 3146 3146 3145 3145 3145 3144 3144 3143 3142 3142 3141 3141 3140 3139 3139 3138 3138 3138 3138 3138 3138 3138 3137 3137 3137 3137 3138 3139 3141 3141 3142 3142 3142 3142 3142 3143 3143 3144 3145 3145 3144 3143 3143
3151 3151 3151 3151 3151 3150 3150 3150 3149 3149 3149 3148 3148 3148 3147 3147 3146 3146 3146 3145 3145 3145 3144 3144 3144 3144 3144 3144 3144 3144 3144 3144 3144 3144 3144 3144 3144 3144 3144 3144 3144 3143 3143 3142 3142 3142 3142 3142 3142 3141 3140 3139 3139 3138 3137 3137 3136 3136 3136 3136 3135 3136 3136 3136 3136 3137 3137 3137 3137 3137 3138 3138 3139 3139 3138 3138 3138 3139 3140 3141 3142 3141 3140 3139 3139
3150 3149 3149 3149 3149 3149 3148 3148 3148 3147 3147 3147 3147 3146 3146 3146 3145 3145 3144 3144 3144 3143 3143 3143 3143 3142 3142 3142 3142 3142 3142 3142 3142 3142 3142 3141 3141 3141 3141 3140 3140 3140 3140 3139 3139 3139 3139 3139 3139 3138 3137 3137 3136 3136 3135 3135 3134 3134 3134 3134 3134 3134 3134 3134 3135 3136 3136 3136 3135 3135 3136 3136 3135 3135 3135 3136 3136 3136 3137 3138 3138 3137 3136 3135 3135
3148 3148 3148 3147 3147 3147 3147 3146 3146 3146 3145 3145 3145 3145 3144 3144 3144 3143 3143 3142 3142 3141 3141 3141 3141 3141 3140 3140 3140 3140 3140 3139 3139 3139 3139 3138 3138 3138 3137 3137 3137 3137 3137 3136 3136 3136 3136 3136 3136 3135 3135 3134 3133 3133 3133 3132 3132 3132 3132 3132 3132 3132 3132 3132 3133 3133 3133 3133 3133 3133 3132 3132 3133 3133 3133 3133 3134 3135 3135 3134 3134 3133 3133 3132 3132
3146 3146 3146 3145 3145 3145 3145 3144 3144 3144 3144 3143 3143 3143 3142 3142 3142 3141 3141 3140 3140 3140 3139 3139 3139 3139 3138 3138 3138 3138 3138 3137 3137 3137 3136 3136 3136 3135 3135 3134 3134 3134 3134 3134 3134 3133 3133 3133 3133 3133 3132 3132 3131 3131 3130 3130 3130 3130 3130 3130 3130 3130 3130 3130 3131 3130 3130 3130 3130 3130 3130 3131 3131 3131 3131 3131 3131 3132 3131 3131 3131 3130 3130 3129 3128
3143 3143 3143 3143 3143 3142 3142 3142 3142 3142 3141 3141 3141 3141 3140 3140 3140 3139 3139 3138 3138 3137 3137 3137 3137 3137 3136 3136 3136 3136 3136 3135 3135 3135 3134 3134 3134 3133 3133 3132 3132 3132 3131 3131 3131 3131 3131 3131 3131 3130 3130 3130 3129 3129 3128 3128 3127 3128 3128 3128 3128 3128 3128 3128 3128 3128 3128 3129 3129 3129 3129 3130 3129 3129 3128 3128 3128 3128 3128 3127 3127 3127 3126 3126 3125
3141 3141 3141 3141 3140 3140 3140 3139 3139 3139 3139 3139 3138 3138 3138 3138 3137 3137 3137 3136 3135 3135 3135 3134 3134 3134 3134 3134 3134 3134 3133 3133 3133 3133 3132 3132 3132 3131 3131 3131 3130 3130 3129 3129 3129 3129 3129 3128 3128 3128 3128 3128 3127 3127 3126 3125 3125 3125 3125 3125 3125 3126 3126 3126 3126 3126 3127 3127 3127 3127 3127 3127 3126 3126 3126 3126 3125 3125 3125 3124 3124 3123 3123 3123 3122
3138 3138 3138 3138 3137 3137 3137 3136 3136 3136 3136 3135 3135 3135 3135 3135 3135 3135 3134 3134 3133 3133 3132 3132 3132 3131 3131 3131 3131 3131 3131 3131 3131 3130 3130 3130 3130 3129 3129 3129 3128 3128 3128 3127 3127 3126 3126 3126 3126 3126 3126 3125 3125 3125 3124 3124 3123 3123 3123 3123 3123 3123 3124 3124 3124 3124 3124 3124 3124 3124 3124 3124 3124 3123 3123 3122 3122 3122 3121 3121 3121 3120 3120 3120 3119
3136 3135 3135 3135 3135 3134 3134 3133 3133 3133 3132 3132 3132 3132 3132 3132 3133 3132 3132 3132 3131 3130 3130 3130 3129 3129 3129 3129 3129 3129 3129 3128 3128 3128 3128 3128 3127 3127 3127 3126 3126 3126 3125 3125 3125 3125 3124 3124 3124 3124 3123 3123 3123 3123 3122 3122 3122 3121 3121 3121 3121 3121 3121 3121 3121 3121 3121 3121 3121 3121 3121 3121 3121 3121 3120 3119 3119 3119 3118 3118 3118 3117 3117 3117 3116
3134 3133 3132 3132 3132 3131 3131 3130 3130 3129 3129 3129 3129 3129 3129 3129 3130 3130 3130 3130 3129 3128 3127 3127 3126 3126 3126 3127 3126 3126 3126 3126 3126 3125 3125 3125 3125 3125 3124 3124 3124 3123 3123 3123 3122 3122 3122 3122 3121 3121 3121 3121 3121 3121 3120 3120 3120 3119 3119 3119 3118 3118 3118 3118 3118 3118 3118 3118 3118 3118 3118 3118 3118 3118 3117 3116 3116 3116 3115 3115 3115 3114 3114 3113 3112
3131 3130 3129 3129 3128 3128 3127 3127 3126 3126 3126 3126 3126 3126 3126 3126 3126 3127 3127 3127 3126 3126 3125 3124 3124 3123 3124 3124 3124 3124 3123 3123 3123 3123 3122 3122 3122 3122 3122 3121 3121 3121 3120 3120 3120 3119 3119 3119 3119 3118 3118 3118 3118 3118 3117 3117 3117 3117 3116 3116 3116 3115 3115 3115 3115 3115 3115 3115 3115 3115 3115 3114 3114 3114 3113 3113 3112 3112 3111 3111 3110 3110 3109 3109 3108
3127 3126 3126 3125 3125 3125 3124 3124 3123 3122 3122 3122 3122 3122 3122 3123 3123 3123 3123 3123 3123 3123 3122 3122 3121 3121 3121 3120 3121 3120 3120 3120 3120 3120 3119 3119 3119 3119 3119 3118 3118 3118 3118 3117 3117 3116 3116 3116 3115 3115 3115 3115 3115 3114 3114 3114 3113 3113 3113 3112 3112 3112 3111 3111 3111 3111 3111 3111 3111 3111 3110 3110 3109 3109 3108 3108 3108 3107 3107 3106 3105 3104 3104 3103 3103
3123 3123 3122 3122 3121 3121 3121 3120 3120 3119 3119 3119 3118 3118 3119 3120 3120 3120 3120 3120 3120 3120 3119 3119 3118 3118 3117 3117 3117 3117 3117 3116 3116 3116 3116 3116 3116 3116 3115 3115 3115 3115 3114 3114 3114 3113 3113 3112 3112 3112 3111 3111 3111 3111 3110 3110 3109 3109 3109 3108 3108 3108 3107 3107 3107 3107 3107 3107 3106 3106 3106 3105 3105 3104 3104 3103 3103 3102 3101 3101 3100 3099 3098 3097 3097
3119 3119 3118 3118 3117 3117 3117 3117 3117 3116 3116 3115 3115 3116 3116 3117 3117 3117 3117 3117 3116 3116 3116 3115 3114 3114 3114 3114 3114 3113 3113 3112 3112 3112 3112 3112 3112 3112 3111 3111 3112 3111 3111 3111 3111 3110 3109 3109 3109 3108 3108 3107 3107 3106 3106 3106 3105 3105 3104 3104 3104 3104 3103 3103 3103 3103 3103 3102 3102 3101 3101 3101 3100 3100 3099 3099 3098 3097 3097 3096 3095 3095 3094 3093 3092
3115 3115 3115 3114 3114 3114 3113 3113 3113 3113 3113 3113 3113 3113 3113 3113 3114 3114 3113 3113 3113 3113 3113 3112 3111 3110 3110 3110 3110 3110 3109 3108 3108 3108 3108 3108 3108 3108 3107 3107 3108 3108 3107 3107 3107 3107 3106 3106 3105 3104 3104 3103 3103 3102 3102 3101 3101 3100 3100 3100 3099 3099 3099 3099 3098 3098 3098 3098 3097 3097 3096 3096 3096 3095 3095 3094 3094 3093 3092 3092 3091 3090 3089 3089 3088
3112 3111 3111 3111 3110 3110 3110 3110 3109 3109 3109 3110 3110 3110 3110 3110 3110 3110 3109 3109 3109 3109 3109 3108 3107 3107 3107 3107 3106 3106 3105 3105 3105 3104 3105 3105 3104 3104 3103 3103 3103 3103 3103 3103 3103 3103 3102 3102 3101 3101 3100 3100 3099 3098 3098 3097 3097 3096 3096 3095 3095 3095 3094 3094 3094 3094 3093 3093 3092 3092 3092 3091 3091 3090 3090 3089 3089 3088 3087 3087 3086 3085 3085 3084 3083
3109 3109 3108 3107 3107 3106 3106 3106 3106 3106 3106 3106 3107 3107 3107 3106 3106 3106 3106 3105 3105 3105 3105 3104 3104 3103 3104 3103 3102 3102 3101 3101 3101 3100 3101 3101 3100 3099 3099 3099 3099 3098 3098 3098 3098 3098 3098 3097 3097 3097 3096 3096 3095 3094 3094 3093 3093 3092 3092 3091 3091 3090 3090 3089 3089 3089 3089 3088 3088 3088 3087 3086 3086 3085 3085 3084 3084 3083 3083 3082 3081 3081 3080 3079 3079
3106 3105 3105 3104 3104 3103 3102 3102 3102 3102 3102 3102 3102 3103 3103 3102 3102 3102 3102 3101 3101 3101 3101 3101 3100 3100 3099 3099 3098 3097 3097 3097 3096 3096 3096 3096 3096 3095 3095 3095 3094 3094 3094 3093 3093 3093 3093 3093 3092 3092 3091 3091 3091 3090 3090 3089 3089 3088 3088 3087 3086 3085 3085 3085 3084 3084 3084 3083 3083 3083 3083 3082 3081 3081 3081 3080 3080 3079 3078 3078 3077 3076 3076 3075 3074
3102 3102 3101 3101 3100 3100 3099 3099 3099 3099 3099 3098 3098 3098 3098 3098 3098 3097 3097 3097 3097 3097 3097 3097 3097 3096 3095 3094 3094 3093 3092 3092 3092 3092 3091 3091 3091 3091 3091 3090 3090 3090 3090 3089 3088 3088 3088 3088 3087 3087 3086 3086 3086 3085 3085 3085 3084 3084 3083 3083 3082 3081 3081 3080 3080 3080 3079 3079 3079 3078 3078 3078 3077 3077 3076 3076 3076 3075 3074 3074 3073 3073 3072 3071 3070
3099 3098 3098 3097 3097 3096 3096 3096 3096 3095 3095 3094 3094 3094 3094 3094 3093 3093 3092 3092 3092 3092 3093 3093 3093 3092 3092 3091 3089 3089 3088 3088 3088 3088 3087 3086 3087 3087 3086 3086 3086 3086 3085 3084 3084 3083 3083 3083 3082 3082 3081 3081 3081 3080 3080 3080 3079 3079 3079 3078 3077 3077 3077 3076 3076 3075 3075 3075 3074 3074 3074 3074 3073 3073 3073 3072 3072 3071 3071 3070 3069 3069 3068 3067 3067
3095 3095 3094 3094 3094 3093 3093 3093 3092 3092 3091 3091 3091 3091 3090 3090 3090 3089 3088 3087 3087 3087 3087 3088 3088 3088 3088 3087 3086 3084 3084 3084 3084 3083 3083 3082 3082 3082 3081 3081 3081 3080 3080 3079 3079 3078 3078 3077 3077 3077 3076 3076 3076 3075 3075 3075 3074 3074 3074 3073 3073 3073 3073 3072 3072 3071 3071 3071 3071 3071 3070 3070 3070 3069 3069 3069 3068 3067 3067 3066 3066 3065 3065 3064 3063